Location: Dana
(41.8364°N, 106.7042°W)
Time: 14:33:20
(UTC+00:00)

Injun/Solrad 3 - Pass Details

Date: 10 May 2026
Orbit: 867 x 989 km, 66.8° (Epoch: 7 June)

Event Time Altitude Azimuth Distance (km) Brightness Sun altitude
Rises 06:20:46 0° 337° (NNW) 3,660 12.2 -29.7°
Reaches altitude 10° 06:24:55 10° 3° (N) 2,732 11.2 -29.9°
Maximum altitude 06:27:59 14° 32° (NNE) 2,483 10.6 -30.0°
Drops below altitude 10° 06:31:03 10° 61° (ENE) 2,747 10.6 -30.1°
Sets 06:35:14 0° 86° (E) 3,697 11.0 -30.2°
